Total_Precipitation_Accumulation
0.03 0.04 0.05 0.06 0.05 0.02 0.03 0.02 0.00 0.01 0.02 0.03 0.05 0.06 0.04 0.04 0.04 0.04 0.03 0.04 0.04 0.07 0.07 0.03 0.00 0.00 0.00 0.00 0.01 0.02 0.00 0.06 0.29 0.40 0.27 0.38 0.39 0.20 0.09 0.03 0.05 0.09 0.20 0.17 0.30 0.47 0.22
0.07 0.07 0.08 0.11 0.10 0.06 0.06 0.04 0.02 0.01 0.02 0.04 0.06 0.05 0.04 0.05 0.04 0.03 0.03 0.04 0.03 0.03 0.02 0.00 0.00 0.00 0.00 0.02 0.00 0.00 0.00 0.07 0.18 0.46 0.26 0.37 0.52 0.30 0.13 0.07 0.07 0.03 0.10 0.20 0.55 0.45 0.28
0.09 0.11 0.13 0.11 0.11 0.11 0.08 0.07 0.03 0.01 0.02 0.03 0.05 0.05 0.05 0.05 0.03 0.03 0.03 0.04 0.04 0.01 0.01 0.00 0.00 0.00 0.00 0.00 0.00 0.00 0.01 0.03 0.06 0.41 0.35 0.36 0.92 0.48 0.24 0.12 0.09 0.07 0.16 0.36 0.63 0.54 0.41
0.15 0.17 0.14 0.12 0.14 0.14 0.09 0.09 0.06 0.02 0.02 0.04 0.04 0.05 0.04 0.04 0.03 0.03 0.02 0.04 0.03 0.00 0.00 0.00 0.02 0.00 0.00 0.00 0.00 0.00 0.00 0.05 0.07 0.19 0.56 0.41 1.27 0.57 0.25 0.10 0.15 0.29 0.30 0.36 0.38 0.39 0.48
0.21 0.19 0.17 0.17 0.16 0.12 0.09 0.08 0.06 0.02 0.03 0.03 0.04 0.04 0.05 0.04 0.03 0.02 0.02 0.01 0.00 0.00 0.00 0.01 0.01 0.00 0.00 0.00 0.00 0.00 0.00 0.03 0.06 0.15 0.44 0.54 1.28 0.63 0.31 0.17 0.16 0.24 0.15 0.12 0.34 0.25 0.25
0.24 0.25 0.18 0.14 0.11 0.10 0.09 0.07 0.06 0.04 0.03 0.04 0.04 0.05 0.05 0.03 0.02 0.03 0.03 0.00 0.00 0.00 0.01 0.00 0.00 0.02 0.03 0.01 0.00 0.00 0.01 0.04 0.09 0.13 0.56 1.07 1.83 0.76 0.38 0.19 0.08 0.06 0.05 0.03 0.11 0.23 0.18
0.16 0.16 0.12 0.09 0.07 0.08 0.11 0.11 0.08 0.05 0.03 0.04 0.04 0.05 0.04 0.02 0.03 0.03 0.01 0.00 0.00 0.00 0.00 0.00 0.00 0.00 0.00 0.00 0.00 0.04 0.05 0.08 0.11 0.31 0.63 0.92 1.81 0.72 0.25 0.07 0.00 0.00 0.01 0.01 0.03 0.04 0.13
0.19 0.19 0.16 0.13 0.13 0.13 0.15 0.14 0.13 0.10 0.03 0.03 0.04 0.04 0.03 0.03 0.03 0.02 0.00 0.00 0.00 0.00 0.00 0.00 0.00 0.00 0.00 0.00 0.00 0.07 0.06 0.09 0.19 0.61 0.71 0.72 0.92 0.33 0.18 0.06 0.02 0.03 0.03 0.05 0.11 0.10 0.03
0.13 0.15 0.12 0.11 0.12 0.15 0.16 0.18 0.21 0.13 0.04 0.03 0.04 0.03 0.02 0.04 0.01 0.00 0.00 0.00 0.00 0.00 0.00 0.01 0.00 0.00 0.00 0.01 0.01 0.10 0.08 0.07 0.27 0.73 0.72 0.48 0.47 0.31 0.13 0.10 0.05 0.04 0.02 0.09 0.06 0.14 0.09
0.13 0.16 0.15 0.14 0.16 0.18 0.18 0.14 0.13 0.10 0.03 0.02 0.02 0.02 0.03 0.02 0.00 0.00 0.00 0.00 0.00 0.00 0.07 0.17 0.02 0.01 0.02 0.05 0.14 0.24 0.10 0.06 0.30 0.62 0.48 0.49 0.36 0.29 0.11 0.07 0.03 0.02 0.00 0.05 0.05 0.05 0.15
0.17 0.18 0.18 0.18 0.22 0.22 0.24 0.21 0.21 0.13 0.03 0.01 0.01 0.02 0.03 0.01 0.00 0.00 0.00 0.00 0.00 0.00 0.10 0.16 0.05 0.04 0.05 0.07 0.15 0.24 0.05 0.08 0.18 0.39 0.56 0.56 0.38 0.29 0.12 0.09 0.04 0.03 0.01 0.03 0.07 0.04 0.07
0.26 0.25 0.28 0.34 0.33 0.29 0.28 0.26 0.20 0.12 0.03 0.00 0.01 0.03 0.01 0.00 0.00 0.00 0.00 0.00 0.00 0.01 0.03 0.23 0.13 0.07 0.05 0.07 0.05 0.04 0.09 0.14 0.25 0.59 0.52 0.28 0.27 0.41 0.09 0.06 0.01 0.06 0.04 0.04 0.07 0.07 0.03
0.43 0.44 0.38 0.38 0.43 0.39 0.35 0.27 0.17 0.11 0.02 0.00 0.00 0.00 0.00 0.00 0.00 0.00 0.00 0.00 0.00 0.00 0.01 0.14 0.34 0.18 0.12 0.10 0.08 0.13 0.15 0.11 0.28 0.67 0.78 0.34 0.45 0.29 0.03 0.08 0.03 0.09 0.03 0.14 0.20 0.17 0.01
0.44 0.48 0.58 0.54 0.43 0.43 0.44 0.27 0.15 0.08 0.01 0.00 0.00 0.00 0.00 0.00 0.00 0.00 0.00 0.00 0.00 0.00 0.01 0.03 0.12 0.16 0.22 0.15 0.16 0.13 0.11 0.10 0.12 0.51 0.42 0.37 0.54 0.24 0.05 0.06 0.09 0.10 0.02 0.02 0.03 0.01 0.00
0.64 0.54 0.54 0.72 0.56 0.42 0.43 0.30 0.15 0.06 0.00 0.00 0.00 0.00 0.00 0.00 0.00 0.00 0.00 0.00 0.00 0.00 0.00 0.00 0.02 0.07 0.11 0.07 0.12 0.06 0.06 0.04 0.14 0.30 0.12 0.07 0.19 0.10 0.05 0.05 0.06 0.05 0.01 0.00 0.00 0.00 0.00
0.96 0.90 0.67 0.68 0.72 0.48 0.39 0.30 0.15 0.04 0.00 0.00 0.00 0.00 0.00 0.00 0.00 0.00 0.00 0.00 0.00 0.00 0.00 0.00 0.01 0.01 0.02 0.02 0.01 0.02 0.02 0.01 0.10 0.12 0.01 0.01 0.09 0.05 0.05 0.03 0.02 0.02 0.01 0.00 0.00 0.00 0.00
0.89 0.78 0.75 0.71 0.78 0.58 0.41 0.28 0.13 0.01 0.00 0.00 0.00 0.01 0.00 0.00 0.00 0.01 0.00 0.00 0.00 0.00 0.00 0.00 0.00 0.00 0.01 0.00 0.00 0.00 0.00 0.02 0.06 0.05 0.00 0.00 0.03 0.07 0.07 0.05 0.04 0.03 0.01 0.00 0.00 0.00 0.00
0.69 0.72 0.72 0.74 0.69 0.66 0.44 0.22 0.07 0.00 0.00 0.00 0.00 0.00 0.00 0.00 0.01 0.00 0.00 0.00 0.00 0.00 0.00 0.00 0.00 0.00 0.00 0.00 0.00 0.00 0.00 0.01 0.02 0.00 0.00 0.00 0.00 0.03 0.03 0.00 0.01 0.01 0.01 0.00 0.00 0.00 0.00
0.66 0.85 0.90 0.93 0.77 0.60 0.44 0.17 0.03 0.00 0.00 0.00 0.00 0.00 0.00 0.01 0.00 0.00 0.00 0.00 0.00 0.00 0.00 0.00 0.00 0.00 0.00 0.00 0.00 0.00 0.00 0.00 0.00 0.00 0.00 0.00 0.00 0.02 0.04 0.02 0.00 0.03 0.01 0.00 0.00 0.00 0.00
1.02 1.39 1.55 1.35 1.14 0.69 0.39 0.13 0.01 0.00 0.00 0.00 0.00 0.00 0.00 0.00 0.00 0.00 0.00 0.00 0.00 0.00 0.00 0.00 0.00 0.00 0.00 0.00 0.00 0.00 0.00 0.00 0.00 0.00 0.00 0.00 0.00 0.00 0.01 0.01 0.00 0.00 0.01 0.00 0.00 0.00 0.00
0.88 1.08 1.22 1.19 1.13 0.78 0.38 0.08 0.01 0.00 0.00 0.00 0.00 0.00 0.00 0.00 0.00 0.00 0.00 0.00 0.00 0.00 0.00 0.00 0.00 0.00 0.00 0.00 0.00 0.00 0.00 0.00 0.00 0.00 0.00 0.00 0.00 0.00 0.00 0.00 0.00 0.00 0.00 0.00 0.00 0.00 0.00
0.92 1.25 1.60 1.76 1.45 0.93 0.43 0.04 0.00 0.00 0.00 0.00 0.00 0.00 0.00 0.00 0.00 0.00 0.00 0.00 0.00 0.00 0.00 0.00 0.00 0.00 0.00 0.00 0.00 0.00 0.00 0.00 0.00 0.00 0.00 0.00 0.00 0.00 0.00 0.00 0.00 0.00 0.00 0.00 0.00 0.00 0.00
0.57 0.76 0.85 1.03 1.07 0.96 0.38 0.03 0.00 0.00 0.00 0.00 0.00 0.00 0.00 0.00 0.00 0.00 0.00 0.00 0.00 0.00 0.00 0.00 0.00 0.00 0.00 0.00 0.00 0.00 0.00 0.00 0.00 0.00 0.00 0.00 0.00 0.00 0.00 0.00 0.00 0.00 0.00 0.00 0.00 0.00 0.00
1.12 1.27 1.19 0.88 0.63 0.56 0.25 0.04 0.02 0.00 0.00 0.00 0.00 0.00 0.00 0.00 0.00 0.00 0.00 0.00 0.00 0.00 0.00 0.00 0.00 0.00 0.00 0.00 0.00 0.00 0.00 0.00 0.00 0.00 0.00 0.00 0.00 0.00 0.00 0.00 0.00 0.00 0.00 0.00 0.00 0.00 0.00
0.75 1.08 1.32 1.39 1.04 0.47 0.15 0.05 0.02 0.00 0.00 0.00 0.00 0.00 0.00 0.00 0.00 0.00 0.00 0.00 0.00 0.00 0.00 0.00 0.00 0.00 0.00 0.00 0.00 0.00 0.00 0.00 0.00 0.00 0.00 0.00 0.00 0.00 0.00 0.00 0.00 0.00 0.00 0.00 0.00 0.00 0.00
0.44 0.63 0.72 0.78 0.77 0.50 0.20 0.09 0.01 0.00 0.00 0.00 0.00 0.00 0.00 0.00 0.00 0.00 0.00 0.00 0.00 0.00 0.00 0.01 0.00 0.00 0.00 0.00 0.00 0.00 0.00 0.00 0.00 0.00 0.00 0.00 0.00 0.00 0.00 0.00 0.00 0.00 0.00 0.00 0.00 0.00 0.00
0.47 0.71 0.85 0.73 0.43 0.26 0.22 0.08 0.00 0.00 0.00 0.00 0.00 0.00 0.00 0.00 0.00 0.00 0.00 0.00 0.00 0.00 0.00 0.01 0.01 0.00 0.00 0.02 0.03 0.01 0.00 0.00 0.00 0.00 0.00 0.00 0.00 0.00 0.00 0.01 0.00 0.00 0.00 0.00 0.00 0.00 0.00
0.61 0.57 0.69 0.69 0.47 0.22 0.13 0.05 0.05 0.00 0.01 0.00 0.00 0.00 0.00 0.00 0.00 0.00 0.00 0.00 0.00 0.00 0.00 0.01 0.06 0.04 0.02 0.06 0.05 0.02 0.00 0.00 0.00 0.00 0.00 0.00 0.00 0.00 0.00 0.02 0.00 0.00 0.00 0.00 0.00 0.00 0.00
1.39 1.09 0.80 0.61 0.41 0.19 0.07 0.07 0.14 0.02 0.01 0.00 0.00 0.00 0.00 0.00 0.00 0.00 0.00 0.00 0.00 0.00 0.00 0.00 0.09 0.12 0.12 0.07 0.04 0.01 0.00 0.00 0.00 0.00 0.00 0.00 0.00 0.00 0.00 0.00 0.00 0.00 0.00 0.00 0.00 0.00 0.00